Date String (YYYY-MM-DD hh:mm:ss) UTC,Instrument flags,absolute air pressure of the measurement (hPa),sample flow rate (lpm),inlet stack bypass flow (lpm),air temperature of the measurement (°C),ambient temperature measured by the external sensor (°C),aerosol sample conditioner tube jacket temperature (°C),OPC LED temperature (°C),internal box temperature (°C),relative humidity of the measurement (%),span deviation,mass concentration of particles derived from Lorenz-Mie calculation of OPC scattering (μg/m³),mass concentration of particles derived from Lorenz-Mie calculation of OPC scattering (μg/m³),mass concentration of particles derived from Lorenz-Mie calculation of OPC scattering (μg/m³)
DateTimeUTC,F1_M11,P_M11,Q1_M11,Q2_M11,T1_M11,T2_M11,T3_M11,T4_M11,T5_M11,U1_M11,ZSPAN_M11,X0_M11,X2_M11,X1_M11
2023-12-27 15:00:00,SystemResetWarning,0830.7,5.00,000.00,019.4,018.8,000.0,027.7,020.7,17.0,0000.0,0002.34,0000.77,0000.55
2023-12-27 15:01:00,SystemResetWarning,0830.8,4.99,000.00,019.4,018.8,000.0,027.7,020.7,17.0,0000.0,0002.32,0000.76,0000.54
2023-12-27 15:02:00,SystemResetWarning,0830.9,5.00,000.00,019.4,018.9,000.0,027.7,020.7,17.0,0000.0,0002.24,0000.75,0000.54
2023-12-27 15:03:00,SystemResetWarning,0830.9,5.00,000.00,019.4,018.9,000.0,027.7,020.7,17.1,0000.0,0002.13,0000.74,0000.54
2023-12-27 15:04:00,SystemResetWarning,0830.9,5.00,000.00,019.4,018.9,000.0,027.7,020.8,17.1,0000.0,0002.00,0000.72,0000.54
2023-12-27 15:05:00,SystemResetWarning,0830.9,5.00,000.00,019.4,018.9,000.0,027.7,020.8,17.0,0000.0,0002.03,0000.75,0000.54
2023-12-27 15:06:00,SystemResetWarning,0830.9,5.00,000.00,019.5,018.9,000.0,027.7,020.8,17.1,0000.0,0002.04,0000.76,0000.54
2023-12-27 15:07:00,SystemResetWarning,0830.9,4.99,000.00,019.4,018.9,000.0,027.8,020.8,16.9,0000.0,0001.89,0000.74,0000.53
2023-12-27 15:08:00,SystemResetWarning,0830.9,5.00,000.00,019.5,018.9,000.0,027.8,020.8,16.7,0000.0,0002.69,0000.75,0000.52
2023-12-27 15:09:00,SystemResetWarning,0830.9,5.00,000.00,019.5,018.9,000.0,027.8,020.8,16.7,0000.0,0003.14,0000.78,0000.52
2023-12-27 15:10:00,SystemResetWarning,0830.9,5.00,000.00,019.5,018.9,000.0,027.8,020.8,16.6,0000.0,0002.73,0000.80,0000.53
2023-12-27 15:11:00,SystemResetWarning,0830.9,5.00,000.00,019.5,018.9,000.0,027.8,020.8,16.5,0000.0,0002.71,0000.79,0000.53
2023-12-27 15:12:00,SystemResetWarning,0830.9,5.00,000.00,019.5,018.9,000.0,027.8,020.8,16.6,0000.0,0002.82,0000.84,0000.54
2023-12-27 15:13:00,SystemResetWarning,0830.9,5.00,000.00,019.5,018.9,000.0,027.8,020.8,16.4,0000.0,0003.07,0000.86,0000.56
2023-12-27 15:14:00,SystemResetWarning,0830.9,5.00,000.00,019.5,018.9,000.0,027.8,020.8,16.0,0000.0,0004.25,0000.95,0000.58
2023-12-27 15:15:00,SystemResetWarning,0830.9,5.00,000.00,019.5,018.9,000.0,027.8,020.8,15.9,0000.0,0005.57,0001.06,0000.61
2023-12-27 15:16:00,SystemResetWarning,0831.0,5.01,000.00,019.5,018.9,000.0,027.8,020.8,15.9,0000.0,0005.71,0001.11,0000.62
2023-12-27 15:17:00,SystemResetWarning,0831.0,5.00,000.00,019.5,019.0,000.0,027.8,020.8,16.1,0000.0,0005.74,0001.13,0000.64
2023-12-27 15:18:00,SystemResetWarning,0831.1,4.99,000.00,019.5,019.0,000.0,027.8,020.9,16.2,0000.0,0005.76,0001.14,0000.65
2023-12-27 15:19:00,SystemResetWarning,0831.1,4.99,000.00,019.5,019.0,000.0,027.8,020.9,16.2,0000.0,0005.32,0001.18,0000.67
2023-12-27 15:20:00,SystemResetWarning,0831.1,4.99,000.00,019.5,019.0,000.0,027.8,020.9,16.1,0000.0,0004.61,0001.23,0000.68
2023-12-27 15:21:00,SystemResetWarning,0831.2,5.00,000.00,019.5,019.0,000.0,027.8,020.9,16.4,0000.0,0005.02,0001.24,0000.69
2023-12-27 15:22:00,SystemResetWarning,0831.1,5.01,000.00,019.5,019.0,000.0,027.8,020.9,16.2,0000.0,0005.25,0001.29,0000.70
2023-12-27 15:23:00,SystemResetWarning,0831.2,5.00,000.00,019.5,018.9,000.0,027.8,020.9,16.0,0000.0,0005.24,0001.29,0000.72
2023-12-27 15:24:00,SystemResetWarning,0831.2,5.01,000.00,019.5,018.9,000.0,027.8,020.9,15.9,0000.0,0005.17,0001.28,0000.72
2023-12-27 15:25:00,SystemResetWarning,0831.1,5.00,000.00,019.6,018.9,000.0,027.8,020.9,16.6,0000.0,0004.50,0001.27,0000.71
2023-12-27 15:26:00,SystemResetWarning,0831.2,5.00,000.00,019.6,018.9,000.0,027.8,020.9,17.0,0000.0,0003.09,0001.23,0000.70
2023-12-27 15:27:00,SystemResetWarning,0831.2,4.99,000.00,019.6,018.9,000.0,027.9,020.9,17.0,0000.0,0003.17,0001.21,0000.68
2023-12-27 15:28:00,SystemResetWarning,0831.3,5.00,000.00,019.6,018.9,000.0,027.8,020.9,17.0,0000.0,0003.18,0001.22,0000.69
2023-12-27 15:29:00,SystemResetWarning,0831.3,5.00,000.00,019.6,018.9,000.0,027.9,020.9,16.5,0000.0,0003.33,0001.28,0000.70
2023-12-27 15:30:00,SystemResetWarning,0831.3,5.01,000.00,019.6,018.9,000.0,027.9,021.0,16.8,0000.0,0003.43,0001.30,0000.70
2023-12-27 15:31:00,SystemResetWarning,0831.3,5.01,000.00,019.6,018.9,000.0,027.9,020.9,16.9,0000.0,0003.32,0001.25,0000.71
2023-12-27 15:32:00,SystemResetWarning,0831.3,5.01,000.00,019.6,018.9,000.0,027.9,020.9,17.1,0000.0,0003.13,0001.24,0000.71
2023-12-27 15:33:00,SystemResetWarning,0831.3,5.01,000.00,019.6,018.9,000.0,027.9,020.9,17.3,0000.0,0002.88,0001.24,0000.72
2023-12-27 15:34:00,SystemResetWarning,0831.3,4.99,000.00,019.6,018.9,000.0,027.9,020.9,17.2,0000.0,0003.07,0001.24,0000.73
2023-12-27 15:35:00,SystemResetWarning,0831.3,4.99,000.00,019.6,018.9,000.0,027.9,020.9,17.3,0000.0,0003.59,0001.29,0000.74
2023-12-27 15:36:00,SystemResetWarning,0831.3,5.01,000.00,019.6,018.8,000.0,027.9,020.9,17.3,0000.0,0003.53,0001.29,0000.75
2023-12-27 15:37:00,SystemResetWarning,0831.3,5.00,000.00,019.6,018.8,000.0,027.9,020.9,16.9,0000.0,0003.52,0001.31,0000.78
2023-12-27 15:38:00,SystemResetWarning,0831.3,5.00,000.00,019.6,018.8,000.0,027.9,020.9,16.0,0000.0,0003.44,0001.33,0000.80
2023-12-27 15:39:00,SystemResetWarning,0831.3,5.01,000.00,019.6,018.8,000.0,027.9,020.9,16.1,0000.0,0003.88,0001.36,0000.81
2023-12-27 15:40:00,SystemResetWarning,0831.4,5.00,000.00,019.6,018.8,000.0,027.9,020.9,16.6,0000.0,0005.52,0001.37,0000.83
2023-12-27 15:41:00,SystemResetWarning,0831.4,5.00,000.00,019.6,018.8,000.0,027.9,021.0,17.0,0000.0,0007.38,0001.38,0000.83
2023-12-27 15:42:00,SystemResetWarning,0831.3,5.00,000.00,019.6,018.8,000.0,027.9,021.0,17.1,0000.0,0007.47,0001.41,0000.84
2023-12-27 15:43:00,SystemResetWarning,0831.3,5.00,000.00,019.6,018.8,000.0,027.9,021.0,16.8,0000.0,0007.54,0001.44,0000.86
2023-12-27 15:44:00,SystemResetWarning,0831.3,4.99,000.00,019.6,018.8,000.0,027.9,021.0,16.6,0000.0,0007.57,0001.47,0000.86
2023-12-27 15:45:00,SystemResetWarning,0831.4,5.00,000.00,019.6,018.8,000.0,027.9,021.0,16.5,0000.0,0007.97,0001.55,0000.86
2023-12-27 15:46:00,SystemResetWarning,0831.4,4.99,000.00,019.6,018.8,000.0,027.9,021.0,16.4,0000.0,0007.88,0001.60,0000.88
2023-12-27 15:47:00,SystemResetWarning,0831.5,4.99,000.00,019.6,018.8,000.0,027.9,021.0,16.5,0000.0,0007.90,0001.64,0000.89
2023-12-27 15:48:00,SystemResetWarning,0831.5,5.01,000.00,019.6,018.8,000.0,027.9,021.0,16.7,0000.0,0007.98,0001.64,0000.90
2023-12-27 15:49:00,SystemResetWarning,0831.5,5.00,000.00,019.6,018.8,000.0,027.9,020.9,16.6,0000.0,0007.95,0001.64,0000.91
2023-12-27 15:50:00,SystemResetWarning,0831.5,5.01,000.00,019.6,018.8,000.0,027.9,021.0,16.5,0000.0,0007.65,0001.59,0000.89
2023-12-27 15:51:00,SystemResetWarning,0831.5,5.00,000.00,019.6,018.8,000.0,027.9,020.9,16.3,0000.0,0006.31,0001.55,0000.87
2023-12-27 15:52:00,SystemResetWarning,0831.5,5.00,000.00,019.6,018.8,000.0,027.9,020.9,16.3,0000.0,0005.51,0001.56,0000.88
2023-12-27 15:53:00,SystemResetWarning,0831.6,5.00,000.00,019.6,018.8,000.0,027.9,021.0,16.5,0000.0,0005.45,0001.56,0000.88
2023-12-27 15:54:00,SystemResetWarning,0831.6,5.00,000.00,019.6,018.8,000.0,027.9,021.0,16.7,0000.0,0005.32,0001.56,0000.89
2023-12-27 15:55:00,SystemResetWarning,0831.6,5.00,000.00,019.6,018.9,000.0,027.9,021.0,16.8,0000.0,0005.29,0001.57,0000.90
2023-12-27 15:56:00,SystemResetWarning,0831.7,5.00,000.00,019.6,018.8,000.0,027.9,021.0,16.8,0000.0,0004.50,0001.53,0000.91
2023-12-27 15:57:00,SystemResetWarning,0831.7,5.00,000.00,019.6,018.8,000.0,027.9,021.0,16.6,0000.0,0004.25,0001.50,0000.90
2023-12-27 15:58:00,SystemResetWarning,0831.7,5.00,000.00,019.6,018.8,000.0,027.9,021.0,16.2,0000.0,0004.33,0001.51,0000.91
2023-12-27 15:59:00,SystemResetWarning,0831.6,5.00,000.00,019.7,018.8,000.0,027.9,021.0,16.0,0000.0,0004.18,0001.48,0000.90
